Vertical_Velocity
2 1 -1 -1 2 -2 -1 2 0 -1 -3 -1 -0 -0 0 2 2 -2 -1 -1 -2 2 3 -4 -0 1 1 -3 1 -1 -4 -0 -1 -1 -1 2 -0 1 0 -0 1 -0 1 1 -4
-1 0 -0 1 -0 -1 -1 -5 2 0 3 1 -2 -1 0 -4 1 2 3 -1 1 -5 -1 1 -0 -2 -2 -0 -1 -4 -1 -2 -2 -1 -1 -1 -1 -1 1 -0 -0 -4 2 -2 -6
1 2 -0 -2 -2 1 -0 3 -1 -8 -3 -2 3 -1 -2 1 0 1 -1 -1 -0 -1 1 -3 0 -2 -3 1 -0 0 -1 -1 -1 -1 -0 -0 1 -0 -1 0 -2 -2 -10 -12 -4
-0 -1 -2 4 -1 -4 -2 0 -2 1 3 -2 -0 -6 -1 1 -2 -3 1 2 -1 -1 -3 -0 -1 -2 -2 -0 0 -2 0 -1 -0 1 0 -0 0 1 0 -3 -1 0 0 -2 -5
-1 -1 -1 0 3 -2 -2 2 0 0 -1 -4 -2 -2 -0 -1 -0 3 -1 0 0 2 -0 -2 -1 -0 -1 -0 0 -1 -0 0 0 -0 1 1 0 -1 -2 -0 0 -1 2 3 -1
-1 -1 0 1 -0 -2 1 -2 -2 2 1 -1 2 -1 -2 0 1 -1 4 -0 -0 0 -0 -2 -0 -1 -1 -1 0 0 0 -1 0 -0 1 -1 0 -0 -1 -1 3 -0 -5 -3 -1
-2 0 -1 -3 1 -1 1 1 -1 -3 -4 -0 -2 -1 -0 2 1 0 1 -1 -1 -2 0 -1 1 -2 -0 1 -0 1 -1 -1 0 0 0 -1 2 -1 -1 -0 -4 -6 -2 -5 -3
2 3 1 1 -5 -2 -2 -1 0 -3 -1 0 -1 -1 -3 -0 -3 -1 -2 -1 -1 -1 1 2 0 -5 -1 0 -1 -1 -2 -0 0 0 1 -4 -4 0 1 -3 -3 -2 -3 -5 -6
-1 -1 2 -2 -2 1 -1 -1 -0 0 -2 2 3 2 -1 2 -0 -1 -1 -0 -4 -4 -7 -10 -2 -1 -0 -0 0 -1 -0 -0 -3 0 -0 0 -2 -1 1 -1 -1 -2 -6 -3 -7
0 1 -0 2 -1 -6 0 -1 -1 -1 -1 -2 -1 2 0 1 1 -1 0 -2 1 -1 -3 2 -2 0 -0 0 -2 -0 -0 -0 -0 -0 0 1 -5 -2 1 1 -0 -3 -4 -6 -8
-1 -3 3 -3 -2 -4 -3 1 -7 -2 -2 -4 2 1 -3 -0 1 -2 -0 -1 1 -2 0 -1 0 -1 -1 -1 -1 -1 0 0 -2 -2 1 -1 -1 -3 -1 -0 -3 -5 -4 -4 -6
-1 -2 -0 12 -1 -0 0 5 -3 3 -8 3 -0 1 1 -1 2 2 2 -2 -1 -0 1 1 -1 0 -0 -0 -0 0 0 -2 -2 -0 3 -1 -4 -1 -0 -0 2 1 -5 -4 -3
-6 21 -0 -2 0 4 3 -2 -2 -1 1 1 -1 1 0 -1 -2 -2 -3 -1 1 1 0 -1 -1 0 0 0 0 -0 -0 -0 1 -1 -0 1 -3 -2 -1 -1 -5 1 3 2 2
-0 -4 4 1 -3 -1 1 -2 -2 2 -1 -1 -1 -1 1 -2 -1 1 0 -3 0 -0 0 -0 0 -0 0 0 -1 1 0 1 1 1 -0 0 -5 -1 -1 -3 -2 -3 -3 -1 -3
-0 -2 0 8 -4 8 5 -11 -4 2 2 -0 -1 -2 1 -3 1 -0 0 -1 -0 0 -0 -0 0 -0 0 0 -1 -1 0 0 0 -0 0 -2 -4 -6 -1 -5 -5 -5 -4 -3 2
-1 4 -5 19 9 -0 7 -6 0 -3 -10 -0 -1 -0 -1 -0 -2 1 -0 -0 -1 -0 -0 1 0 -1 0 -0 -0 0 0 -1 -1 -1 -3 -2 -2 -3 -1 -2 -5 -5 -4 -1 -9
2 -2 3 8 10 -15 -7 -6 -1 -1 -1 -1 -1 0 -0 0 -1 -0 -1 -3 -2 -4 -1 -0 1 0 -0 -0 0 -3 -3 -3 -6 -5 -5 -0 1 -5 -1 -1 -1 1 -4 -3 -3
-1 -5 0 7 -9 2 -0 -0 3 -4 -1 0 -0 0 0 0 -1 -0 0 0 0 -1 -1 -1 -1 0 0 0 0 1 -2 -5 -2 -1 -2 -1 -2 -4 -2 -0 2 2 1 1 -2
-1 2 0 5 2 -2 -2 0 -7 -1 -2 -1 1 1 0 -0 1 -1 -0 -1 -1 -1 -4 -2 1 1 -1 -0 1 1 -2 -2 -5 -0 0 -1 -6 -3 1 -3 -3 -1 -3 -4 -2
-1 -2 -1 2 -1 4 -2 -3 -1 1 -1 -1 0 -1 -0 -0 0 -1 -1 -1 0 -0 -0 -0 -3 1 1 1 1 -1 -2 -2 -4 -4 -2 -3 -1 -3 -5 -4 -3 -5 -3 -4 -3
1 1 -3 -2 -2 0 -1 -3 -0 -0 1 2 -1 0 -2 -0 -0 -0 -1 2 0 1 -0 -1 -4 -2 0 -1 0 1 -1 -2 -6 -1 -4 -1 -5 -4 -2 -1 -0 -1 2 1 -2
2 -2 -3 3 -2 0 -0 0 1 -1 -0 -1 0 -0 -1 -0 0 1 -1 -2 0 -2 -1 0 -2 -0 -1 1 0 -0 -0 -1 -4 -4 0 -1 -11 -0 -1 -1 2 0 1 2 5
-2 -1 1 -0 0 -0 0 -0 -1 1 -1 0 0 -0 0 -1 1 0 -0 1 -0 -0 -2 -3 -2 -2 -4 -0 -1 0 1 -0 -1 -2 -1 -4 -9 -0 -0 -1 1 -1 -0 -1 0
-2 -1 -2 2 -0 1 -0 -2 0 0 -0 0 0 -2 0 1 0 -1 1 1 0 -1 1 -1 -0 -3 -4 -5 -2 -1 0 0 -2 -2 -2 -5 -4 0 -2 -0 -2 -2 1 1 -2
-2 -2 1 -1 -1 0 1 -0 0 -0 0 1 -0 0 -3 0 1 -0 1 1 0 3 -1 -2 -1 -0 -1 -0 0 -0 -1 0 -1 -2 -5 -5 -1 -3 -1 -1 -0 -0 0 -1 -3
-1 -2 -0 -0 0 1 1 -2 0 -1 -3 -0 2 -0 -0 -2 -4 -2 -3 -0 -4 1 -0 -1 1 -0 -1 0 0 0 0 0 -0 0 1 0 -4 -3 -1 1 -1 1 -0 -1 -1
1 -2 1 -1 1 0 -3 -3 -2 -1 -1 0 -3 -2 2 -1 0 -0 1 -1 -1 -4 -0 -1 -2 -1 -2 0 -0 -1 -5 -1 -1 -0 -6 -2 -8 -0 0 0 -1 1 -1 0 0
Height
1527 1525 1523 1521 1520 1517 1516 1514 1512 1509 1506 1505 1502 1500 1498 1496 1494 1493 1492 1493 1490 1488 1486 1483 1484 1483 1482 1481 1482 1481 1486 1490 1489 1493 1490 1494 1495 1496 1497 1498 1499 1499 1499 1497 1492
1528 1525 1523 1521 1519 1517 1515 1513 1511 1508 1506 1503 1501 1499 1497 1495 1494 1491 1491 1489 1488 1486 1486 1484 1481 1483 1483 1483 1482 1483 1486 1485 1487 1487 1489 1491 1493 1495 1497 1497 1497 1496 1495 1492 1487
1528 1525 1523 1521 1518 1517 1514 1512 1510 1507 1505 1503 1500 1499 1497 1494 1493 1491 1490 1488 1487 1485 1484 1484 1483 1481 1484 1486 1484 1485 1486 1486 1487 1488 1489 1490 1492 1493 1494 1496 1496 1495 1491 1486 1481
1527 1525 1523 1520 1517 1515 1514 1511 1509 1506 1503 1501 1499 1498 1497 1495 1496 1491 1490 1487 1486 1485 1484 1482 1482 1483 1486 1488 1486 1486 1486 1486 1486 1487 1488 1490 1490 1492 1492 1493 1494 1492 1490 1485 1479
1527 1524 1522 1520 1517 1515 1513 1510 1508 1505 1502 1500 1498 1497 1496 1495 1494 1491 1489 1487 1486 1485 1483 1482 1483 1484 1485 1488 1488 1485 1486 1486 1486 1487 1488 1488 1488 1489 1489 1491 1491 1489 1485 1480 1473
1525 1523 1521 1518 1516 1514 1512 1509 1507 1505 1501 1499 1496 1493 1495 1496 1492 1492 1490 1487 1486 1486 1485 1484 1484 1484 1483 1487 1488 1486 1486 1486 1486 1486 1486 1488 1489 1488 1489 1490 1489 1485 1482 1475 1468
1522 1520 1518 1517 1515 1513 1511 1508 1505 1502 1500 1497 1495 1492 1491 1494 1491 1491 1490 1488 1487 1486 1487 1484 1486 1485 1487 1485 1487 1487 1486 1487 1485 1485 1486 1487 1488 1487 1488 1489 1487 1483 1477 1471 1465
1519 1518 1515 1513 1512 1511 1509 1506 1503 1499 1497 1494 1492 1491 1488 1489 1489 1490 1489 1488 1486 1486 1486 1485 1486 1486 1488 1488 1486 1488 1489 1486 1484 1484 1487 1487 1479 1485 1487 1487 1484 1478 1472 1468 1461
1515 1514 1513 1511 1510 1508 1506 1503 1501 1496 1494 1492 1492 1490 1488 1488 1488 1487 1487 1487 1486 1485 1483 1485 1486 1487 1487 1488 1488 1490 1485 1490 1485 1483 1485 1486 1482 1485 1485 1485 1481 1476 1471 1465 1452
1511 1510 1509 1508 1506 1505 1504 1500 1498 1494 1492 1492 1491 1493 1490 1489 1488 1485 1483 1483 1483 1484 1485 1485 1486 1486 1487 1487 1480 1484 1487 1491 1489 1484 1484 1484 1483 1483 1484 1483 1479 1475 1471 1463 1453
1506 1505 1505 1503 1503 1502 1502 1498 1498 1495 1492 1492 1491 1490 1489 1489 1487 1484 1482 1482 1481 1483 1485 1485 1487 1485 1484 1487 1489 1489 1491 1492 1488 1484 1484 1483 1483 1481 1483 1482 1478 1473 1468 1461 1453
1500 1499 1500 1500 1499 1499 1499 1498 1497 1499 1492 1489 1488 1487 1486 1486 1486 1484 1483 1481 1482 1484 1485 1486 1484 1486 1486 1488 1488 1488 1489 1489 1485 1484 1486 1483 1478 1481 1480 1480 1479 1475 1468 1460 1446
1494 1494 1495 1495 1496 1496 1494 1495 1494 1494 1492 1488 1487 1486 1486 1485 1485 1484 1482 1481 1483 1483 1483 1482 1484 1485 1486 1488 1486 1484 1488 1489 1487 1486 1486 1484 1478 1487 1480 1480 1477 1473 1469 1460 1447
1489 1490 1491 1492 1495 1492 1492 1491 1492 1492 1493 1487 1487 1486 1485 1484 1487 1484 1481 1482 1483 1484 1484 1483 1485 1484 1486 1486 1487 1488 1489 1488 1489 1490 1485 1488 1481 1483 1484 1481 1474 1470 1464 1454 1444
1485 1484 1486 1488 1488 1487 1489 1488 1490 1492 1486 1489 1487 1487 1485 1486 1488 1485 1482 1480 1483 1484 1485 1483 1484 1485 1485 1487 1488 1486 1489 1489 1487 1490 1492 1491 1493 1479 1487 1484 1474 1472 1466 1455 1444
1482 1480 1482 1482 1484 1484 1486 1487 1491 1494 1491 1484 1485 1485 1485 1483 1487 1484 1481 1481 1483 1484 1484 1485 1486 1487 1488 1488 1487 1489 1489 1490 1494 1495 1504 1506 1497 1477 1488 1491 1481 1475 1466 1456 1443
1481 1480 1480 1481 1482 1485 1485 1488 1491 1483 1482 1483 1483 1483 1483 1483 1486 1485 1483 1486 1488 1487 1487 1484 1486 1488 1488 1487 1489 1489 1493 1497 1487 1505 1491 1508 1496 1483 1489 1487 1486 1478 1468 1457 1446
1479 1480 1480 1481 1482 1483 1485 1489 1483 1475 1475 1481 1484 1484 1480 1485 1487 1484 1484 1484 1491 1493 1496 1481 1476 1489 1490 1492 1492 1494 1497 1501 1483 1492 1495 1498 1500 1478 1485 1484 1482 1479 1471 1461 1447
1480 1481 1482 1480 1481 1483 1486 1484 1482 1478 1475 1479 1483 1481 1480 1484 1489 1485 1483 1487 1488 1492 1492 1491 1483 1492 1492 1493 1495 1492 1499 1504 1524 1535 1515 1497 1488 1482 1484 1482 1478 1474 1467 1459 1446
1481 1482 1483 1483 1482 1485 1487 1482 1481 1479 1479 1477 1476 1477 1477 1483 1489 1488 1483 1486 1489 1491 1492 1492 1491 1492 1493 1494 1495 1492 1501 1500 1514 1508 1495 1494 1501 1484 1486 1484 1478 1474 1471 1462 1450
1480 1481 1483 1483 1484 1485 1486 1482 1478 1479 1482 1481 1476 1476 1480 1484 1484 1483 1482 1488 1489 1491 1492 1493 1495 1494 1493 1495 1494 1496 1501 1509 1515 1527 1518 1506 1485 1494 1496 1490 1486 1480 1474 1467 1456
1479 1482 1482 1483 1487 1485 1485 1484 1482 1480 1481 1479 1477 1477 1478 1484 1486 1484 1481 1484 1488 1489 1492 1493 1495 1492 1493 1499 1499 1499 1499 1503 1500 1518 1545 1531 1494 1490 1489 1487 1485 1481 1476 1470 1460
1480 1481 1481 1483 1481 1482 1482 1482 1480 1482 1481 1479 1476 1477 1482 1482 1482 1484 1483 1487 1488 1489 1491 1492 1496 1494 1489 1499 1499 1498 1502 1511 1518 1522 1532 1515 1484 1490 1489 1486 1483 1481 1476 1472 1462
1481 1482 1481 1481 1480 1481 1479 1478 1477 1480 1479 1479 1477 1478 1482 1482 1486 1483 1485 1488 1488 1489 1489 1491 1497 1489 1481 1484 1498 1504 1505 1506 1506 1508 1530 1515 1493 1487 1488 1486 1481 1481 1477 1474 1466
1479 1478 1477 1479 1478 1478 1478 1476 1477 1476 1479 1478 1476 1475 1476 1481 1486 1484 1487 1489 1489 1488 1491 1492 1493 1499 1492 1492 1494 1493 1501 1508 1508 1505 1499 1505 1507 1488 1489 1485 1482 1482 1479 1475 1470
1476 1476 1476 1476 1475 1476 1476 1473 1470 1471 1473 1474 1474 1469 1474 1474 1474 1479 1482 1486 1482 1490 1491 1492 1491 1496 1495 1492 1493 1491 1491 1497 1505 1502 1505 1510 1500 1486 1485 1484 1483 1482 1479 1478 1474
1471 1473 1474 1471 1473 1474 1472 1469 1468 1468 1466 1466 1468 1470 1472 1472 1476 1478 1479 1481 1481 1485 1490 1493 1495 1496 1485 1494 1497 1483 1486 1489 1492 1495 1493 1492 1482 1484 1484 1482 1483 1482 1480 1478 1477